Location: *
(44.1392°N, 4.8079°E)
Time: 22:51:42
(UTC+00:00)

FALCON 9 DEB - Pass Details

Date: 21 June 2021
Orbit: 362 x 379 km, 53.0° (Epoch: 01 August)

Event Time Altitude Azimuth Distance (km) Brightness Sun altitude
Rises 02:47:52 0° 302° (WNW) 2,271 6.7 -10.2°
Maximum altitude 02:53:04 67° 218° (SW) 420 2.8 -9.6°
Drops below altitude 10° 02:56:10 10° 135° (SE) 1,395 5.7 -9.2°
Sets 02:58:12 0° 132° (SE) 2,240 6.8 -9.0°
